Regional Weather Roundup
Issued by NWS Wakefield, VA

Home | Current Version | Previous Version | Graphics & Text | Print | Product List | Glossary On
Versions: 1 2 3 4 5 6 7 8 9 10 11 12 13 14 15 16 17 18 19 20 21 22 23 24 25 26 27 28 29 30 31 32 33 34 35 36 37 38 39 40 41 42 43 44 45 46 47 48 49 50
000
ASUS41 KAKQ 291710
RWRAKQ

REGIONAL WEATHER ROUNDUP
NATIONAL WEATHER SERVICE WAKEFIELD VA
1200 PM EST THU JAN 29 2015

Note: "fair" indicates few or no clouds below 12,000 feet with no
significant weather and/or obstructions to visibility. * = Denotes
station may not report precipitation (e.g., rain,snow,etc.),
thunder or fog.

VAZ042-051-052>054-056-291800-
NORTHERN VIRGINIA

CITY           SKY/WX    TMP DP  RH WIND       PRES   REMARKS
WASH NATIONAL  CLOUDY    36  12  37 S7        30.26F
DULLES         CLOUDY    31  11  43 S9        30.21F
FORT BELVOIR   CLOUDY    33  13  44 S7        30.25F
QUANTICO       CLOUDY    33  18  53 S13       30.27F WCI  24
FREDERICKSBRG* PTSUNNY   36  12  36 S8        30.25F
STAFFORD*      CLOUDY    35   8  33 CALM      30.29F
WARRENTON      CLOUDY    37  18  46 S7        30.21F
CULPEPER*      PTSUNNY   37   9  30 S7        30.22F
MANASSAS*      CLOUDY    30  14  51 S10       30.24F WCI  21
LEESBURG*      CLOUDY    32  16  51 S10G16    30.21F WCI  24
WINCHESTER     CLOUDY    34   5  29 SE9       30.13F
FRONT ROYAL*   CLOUDY    36  18  48 CALM      30.12F
LURAY*         FAIR      41  19  42 SW15      30.11F
$$

VAZ048-049-060>072-079>083-291800-
CENTRAL AND SOUTH CENTRAL VIRGINIA

CITY           SKY/WX    TMP DP  RH WIND       PRES   REMARKS
RICHMOND       CLOUDY    37  12  35 S10       30.28F
CHESTERFIELD*  FAIR      37   9  30 S12       30.28F
PETERSBURG*    MOSUNNY   39   8  28 S8        30.29F
HANOVER        MOSUNNY   36  11  35 S10       30.28F
TAPPAHANNOCK*  MOSUNNY   36   7  29 SE8       30.29F
QUINTON*       FAIR      34  11  37 S8        30.29F
CHARLOTTSVILLE PTSUNNY   39   7  26 S12G18    30.20F
GORDONSVILLE*  FAIR      38   8  28 S10       30.21F
ORANGE*        MOSUNNY   37  10  32 S14       30.23F
LOUISA*        MOSUNNY   37   9  30 S8        30.22F
BUMPASS*       FAIR      36   9  32 CALM      30.25F
FARMVILLE*     MOSUNNY   43  12  27 S9        30.24F
CREWE*         FAIR      39   5  24 S6        30.25F
FORT PICKETT*  FAIR      38  10  32 S8        30.27F
CHASE CITY*    FAIR      41  14  33 S5        30.27F
CLARKSVILLE*   FAIR      37  10  32 S6        30.27F
SOUTH HILL*    MOSUNNY   37   9  32 S8        30.34F
LAWRENCEVILLE* FAIR      38  11  32 SE6       30.28F
EMPORIA*       SUNNY     36  14  41 SE6       30.31F
$$

VAZ088>098-291800-
SOUTHEAST VIRGINIA

CITY           SKY/WX    TMP DP  RH WIND       PRES   REMARKS
NORFOLK        CLOUDY    37  12  35 SW3       30.30F
VIRGINIA BEACH CLOUDY    38  15  39 S5        30.29F
NORFOLK NAVAL  CLOUDY    40  16  37 VRB5      30.32F
WEST POINT*    CLOUDY    38  18  44 S7        30.32F
SALUDA*        FAIR      35  20  54 S3        30.29F
NEWPORT NEWS   CLOUDY    39  18  42 SW6       30.31F
LANGLEY AFB    CLOUDY    36  19  50 S6        30.30F
FORT EUSTIS    CLOUDY    37  24  59 SW7       30.29F
WILLIAMSBURG*    N/A     39  21  48 SW5       30.31F
HR EXEC AP*    FAIR      36  19  51 SW6       30.34F
FRANKLIN*      PTSUNNY   36  16  44 S7        30.32F
WAKEFIELD      CLOUDY    37  14  38 S5        30.31F
$$

VAZ020-022-025-037-045-291800-
WEST CENTRAL AND SOUTHWEST VIRGINIA

CITY           SKY/WX    TMP DP  RH WIND       PRES   REMARKS
STAUNTON*      CLOUDY    38   9  31 S12       30.14F
WAYNESBORO*    FAIR      37  12  35 S8        30.12F
HOT SPRINGS VA CLOUDY    29  15  55 S8        29.98F
LYNCHBURG      PTSUNNY   38  13  35 S10       30.21F
DANVILLE       PTSUNNY   44  16  32 S8        30.24F
SOUTH BOSTON*  FAIR      42   7  24 S9        30.26F
MARTINSVILLE   MOSUNNY   46  22  38 SW5       30.22F
ROANOKE        PTSUNNY   37  16  42 SE6       30.19F
BLACKSBURG     PTSUNNY   41  18  40 S7        30.14F
DUBLIN*        PTSUNNY   39  23  52 CALM      30.12F
MARION*        CLOUDY    37  21  52 E3        30.12F
HILLSVILLE*    CLOUDY    37  20  51 S15G23    30.11F
RICHLANDS*     LGT RAIN  37  21  52 W8G18     30.08R
WISE*          CLOUDY    37  32  81 SW13G20   30.04F
ABINGDON*      CLOUDY    40  23  49 CALM      30.12R
$$

MDZ021>025-VAZ099-100-291800-
SOUTHERN MARYLAND AND THE DELMARVA PENINSULA

CITY           SKY/WX    TMP DP  RH WIND       PRES   REMARKS
PATUXENT RIVER CLOUDY    33  16  49 SE10      30.27F WCI  25
BAY BRIDGE APT   N/A     32  10  40 SE10      30.27F WCI  24
LEONARDTOWN    CLOUDY    34  14  44 SE5       30.29
DOVER          CLOUDY    31  16  53 SE5       30.28F
GEORGETOWN     PTSUNNY   35  11  36 S6        30.28F
EASTON         MOSUNNY   34  14  44 S6        30.31F
CAMBRIDGE      CLOUDY    36  14  41 S8        30.28F
SALISBURY      PTSUNNY   39  10  30 SW8       30.28F
OCEAN CITY     MOSUNNY   34  21  59 S5        30.29F
WALLOPS ISLAND CLOUDY    34  18  52 SE6       30.30F
ACCOMACK*      CLOUDY    34  14  44 S5        30.30F
$$

NCZ012>017-030>032-291800-
NORTH CENTRAL AND EASTERN NORTH CAROLINA

CITY           SKY/WX    TMP DP  RH WIND       PRES   REMARKS
ROANOKE RAPIDS FAIR      37  14  38 S5        30.31F
RALEIGH        PTSUNNY   42  13  30 SW9       30.30F
ELIZABETH CITY CLOUDY    37  13  37 E3        30.32F
AHOSKIE*       MOSUNNY   37  12  35 S7        30.32F
EDENTON*       CLOUDY    38  18  44 S5        30.33F
CURRITUCK*     CLOUDY    38  15  39 CALM      30.32F
KILL DEVIL HLS CLOUDY    39  22  49 CALM      30.30F
MANTEO         CLOUDY    37  23  56 W6        30.31F
CAPE HATTERAS  MOSUNNY   40  24  53 VRB5      30.32F
TARBORO*       FAIR      38  11  32 S3        30.33F
GOLDSBORO      SUNNY     41  15  34 CALM      30.31F
WASHINGTON     PTSUNNY   38  14  36 SE5       30.33F
GREENVILLE     MOSUNNY   41  12  30 SW3       30.33F
NEW BERN       PTSUNNY   45  13  27 NW3       30.35F
WILMINGTON     MOSUNNY   46  12  25 CALM      30.33F
$$

VAZ048-291800-
ELSEWHERE

CITY           SKY/WX    TMP DP  RH WIND       PRES   REMARKS
HARRISBURG PA  CLOUDY    25  10  53 SE5       30.21F
BALTIMORE      CLOUDY    31  12  45 S7        30.25F
ANNAPOLIS      CLOUDY    32  14  47 SE13      30.26F WCI  22
ANDREWS AFB    NOT AVBL
PHILADELPHIA   CLOUDY    32   5  32 SE5       30.28F
HENDERSON NC   PTSUNNY   38   8  28 S8        30.28F
GREENSBORO     CLOUDY    45  21  38 SW14      30.22F
ROCKY MOUNT    MOSUNNY   40  11  30 S3        30.32F
$$

VAZ100-291800-
MARINE

STATION/POSITION TIME  TEMP    WIND        PRES    WAVE   SWELL
                       AIR SEA DIR/SP/G            HT/PER HT/PER
                 (UTC) (F)     (DEG/KT/KT) (MB)    (FT/S) (FT/S)
BRANDYWINE LGT   1700   31 36  150/  9/ 10 1025.6F
CAPE MAY NJ      1700   32 36              1024.9F
LEWES DE         1700   33 36  160/  5/  8 1025.3F
15NM E FENWICK I 1700   34 40              1025.3F   3/ 6
OCEAN-CITY-INLET 1700          120/  3/  4   N/A
WACHAPREAGUE VA  1700   34 34  210/  3/  5 1025.9F
THOMAS POINT MD  1700   31 35  170/ 12/ 13 1025.8F
GOOSES REEF MD   1700   31     VRB 12/ 16  1024.4F
COVE POINT MD    1700   30     180/ 12/ 13 1024.9F
SOLOMONS ISLAND  1700      37                N/A
BISHOPS HEAD MD  1700   31 33  160/  9/ 10 1025.0F
PINEY POINT MD   1700          160/ 10/ 11   N/A
POTOMAC MD       1700   32     170/  8/ 10 1024.9F
CAMBRIDGE MD     1700   33 35  160/  5/  8 1025.2F
LEWISETTA VA     1700   34 35  180/  8/  9 1025.0F
RAPPAHANNOCK LGT 1700          170/  8/  9 1026.3F
STINGRAY PT      1700   33     180/  6/  8 1026.4F
YORK RVR RNG VA  1700   34     180/  6/  7 1025.6F
YORKTOWN VA      1600   35 39  160/  4/  6 1026.9F
JAMESTOWN VA     1700   33     180/  4/  6   N/A
DOMINION TERM VA 1700   35     130/  4/  5 1026.5F
KIPTOPEKE VA     1700      43  190/  6/  7   N/A
CHES BAY BRIDGE  1700          110/  2/  5   N/A
CAPE HENRY VA    1700   34     100/  7/  8 1024.8F
CHESAPEAKE LGHT  1600   34      90/  2/  3 1027.9F
WILLOUBY STN VA  1700   35     110/  3/  3 1026.7S
S CRANEY ISL VA  1700          190/  5/  7 1026.3F
CAPE HENRY BUOY  1600      42                N/A     3/12   2/12
1ST LANDING BUOY 1700   34     110/  4/  6 1026.0F
CAPE CHARLES BUO 1700      41                N/A     3/ 7   3/ 7
OFFSHORE WE BUOY 1700      43                N/A     4/ 7   5/ 7
64NM E OF VA BCH 1700   39 49   20/  4/  8 1025.4F   5/11   5/11
DUCK PIER NC     1700   37 41   50/  2/  2 1025.8F
44100 DUCK FRF   1700      45                N/A     5/12   2/12
44056 DUCK FRF   1700      42                N/A     4/11   2/11
OREGON INLET NC  1700   38 41   40/  5/  6 1026.5F
HATTERAS NC      1700          350/  4/  6   N/A


USA.gov is the U.S. government's official web portal to all federal, state and local government web resources and services.